Погода в Саранске

Россия / Республика Мордовия     54°11′13″N   45°11′01″E
темп.,
°C
ветер,
м/с
пор.,
м/с
влажн.,
%
обл.,
%
осадки,
мм/ч
давл.,
гПа
погр.,
м
24 октября, вс
вс2400:00+6з49695 0.4 1011421
03:00+4зюз49825 0.4 1011281
06:00+2зюз410915 0.0 1012316
09:00+4зюз610785 0.0 1013534
12:00+6з7963100 0.0 10131226
15:00+5зюз5873100 0.0 10131010
18:00+4зюз5881100 0.1 1014749
21:00+3зюз4885100 0.2 1014648
25 октября, пн
пн2500:00+2зсз5897100 0.3 1014623
03:00+1сз6119099 0.5 1016671
06:000ссз71291100 0.3 1018807
09:000ссз8118093 0.7 1022876
12:00+1ссз796394 0.0 10241066
15:00+2ссз685446 0.0 10261110
18:000сз376873 0.0 1028182
21:00−2зсз247986 0.0 102971
26 октября, вт
вт2600:00−2зюз35805 0.0 102996
03:00−2юз4107870 0.0 1029239
06:00−2юз5137529 0.0 1028334
09:00+1юз614635 0.0 1027495
12:00+5зюз8125217 0.0 1025712
15:00+5зюз7135379 0.0 1024741
18:00+2зюз61462100 0.0 1024448
21:00+2зюз6146486 0.0 1024427
27 октября, ср
ср2700:00+2зюз61467100 0.0 1024383
03:00+1юз61368100 0.0 1023355
06:00+1юз513676 0.0 1023355
09:00+3юз614585 0.0 1023450
12:00+7зюз812455 0.0 1022685
15:00+8юз714462 0.0 1020779
18:00+5юз715510 0.0 1020555
21:00+4юз716495 0.0 1019541
28 октября, чт
чт2800:00+4юз71548100 0.0 1017536
03:00+4юз71359100 0.1 1016567
06:00+3зюз71386100 0.0 1017776
09:00+5з61178100 0.1 1018864
12:00+8з796533 0.0 1019996
15:00+8з5865100 0.0 10191110
18:00+6юз31074100 0.0 1019286
21:00+6юз5116799 0.0 1018433